This is the latest recevied weather packets stored in our database for station/object W6SNO-1. If no packets are shown the sender has not sent any weather packets the latest 10 day(s).
| Time | Temp. | Humidity | Pressure | Rain* | Wind** | Luminosity | Snow |
|---|---|---|---|---|---|---|---|
| 1787677820 | 20° C | 73% | 1018 hPa | 0 mm | - | 342 W/m² | - |
| 1787677514 | 18.89° C | 76% | 1018.1 hPa | 0 mm | - | 488 W/m² | - |
| 1787677214 | 18.89° C | 76% | 1017.9 hPa | 0 mm | - | 488 W/m² | - |
| 1787676913 | 18.89° C | 77% | 1017.9 hPa | 0 mm | - | 127 W/m² | - |
| 1787676608 | 18.89° C | 78% | 1018 hPa | 0 mm | - | 120 W/m² | - |
| 1787676305 | 18.33° C | 78% | 1017.7 hPa | 0 mm | - | 127 W/m² | - |
| 1787676001 | 18.33° C | 79% | 1018 hPa | 0 mm | - | 79 W/m² | - |
| 1787675697 | 18.33° C | 79% | 1017.7 hPa | 0 mm | - | 55 W/m² | - |
| 1787675395 | 17.78° C | 80% | 1018.1 hPa | 0 mm | - | 56 W/m² | - |
| 1787675090 | 17.78° C | 81% | 1018.1 hPa | 0 mm | - | 49 W/m² | - |
| 1787674789 | 17.78° C | 82% | 1018.1 hPa | 0 mm | - | 47 W/m² | - |
| 1787674486 | 17.22° C | 83% | 1018.1 hPa | 0 mm | - | 46 W/m² | - |
| 1787674181 | 17.22° C | 83% | 1018.1 hPa | 0 mm | - | 47 W/m² | - |
| 1787673875 | 17.22° C | 84% | 1017.9 hPa | 0 mm | - | 47 W/m² | - |
| 1787673270 | 17.22° C | 84% | 1017.9 hPa | 0 mm | - | 55 W/m² | - |
| 1787672970 | 17.22° C | 84% | 1017.9 hPa | 0 mm | - | 55 W/m² | - |
| 1787672666 | 17.22° C | 85% | 1018 hPa | 0 mm | - | 84 W/m² | - |
| 1787672359 | 16.67° C | 85% | 1017.9 hPa | 0 mm | - | 90 W/m² | - |
| 1787672054 | 16.67° C | 85% | 1018 hPa | 0 mm | - | 88 W/m² | - |
| 1787671754 | 16.67° C | 85% | 1018.1 hPa | 0 mm | - | 74 W/m² | - |
| 1787671454 | 16.67° C | 85% | 1017.9 hPa | 0 mm | - | 107 W/m² | - |
| 1787671149 | 16.67° C | 85% | 1018 hPa | 0 mm | - | 110 W/m² | - |
| 1787670845 | 16.67° C | 86% | 1018 hPa | 0 mm | - | 105 W/m² | - |
| 1787670540 | 16.67° C | 86% | 1018.1 hPa | 0 mm | - | 98 W/m² | - |
| 1787670234 | 16.11° C | 87% | 1018.1 hPa | 0 mm | - | 81 W/m² | - |
* Rain latest hour (hover to see other rain measurements)
** Current wind speed in m/s (hover to see current wind gust speed)